[[{"header":{"parameterUnit":"m.s-1","parameterCategory":1,"la1":30.2992,"la2":30.254,"lo1":-89.0895,"lo2":-89.0443,"dy":0.0025,"dx":0.0025,"nx":19,"ny":19,"refTime":"2026-04-01T21:00:00:Z","depth":0,"parameterNumber":2,"parameterNumberName":"U-component_of_WINDS"},"data":[0,0,0,-3.9478,-3.9482,-3.966,-3.9661,-3.9886,-3.9888,0,0,0,0,0,0,0,0,0,0,0,-3.9424,-3.9426,-3.9478,-3.9482,-3.966,-3.9661,-3.9886,-3.9888,0,0,0,0,0,0,0,0,0,0,0,-3.9423,-3.9425,-3.9427,-3.9483,-3.966,-3.9661,-3.9885,-3.9752,0,0,0,0,0,0,0,0,0,0,-3.958,-3.9528,-3.9425,-3.9427,-3.9484,-3.966,-3.9661,-3.9746,-3.976,-3.9805,0,-3.9843,0,-3.9869,-3.9903,-3.9904,0,0,0,-3.9484,-3.9516,-3.9565,-3.9427,-3.9486,-3.9659,-3.958,-3.9754,-3.9771,-3.9824,-3.9847,-3.9855,-3.9873,-3.9905,-3.9906,-4.0156,-4.0157,0,0,-3.9474,-3.9455,-3.9554,-3.9576,-3.9548,-3.9575,-3.9586,-3.9764,-3.9787,-3.9848,-3.9861,-3.9877,-3.9906,-3.9908,-4.0155,-4.0157,0,0,0,-3.9445,-3.9448,-3.9493,-3.9566,-3.9599,-3.958,-3.9593,-3.9779,-3.9796,-3.9863,-3.988,-3.9907,-3.991,-4.0154,-4.0156,-4.0191,0,0,0,-3.9439,-3.9431,-3.9489,-3.9479,-3.9595,-3.9691,-3.9604,-3.9783,-3.9804,-3.9878,-3.9907,-3.9912,-4.0153,-4.0155,-4.0187,-4.021,0,0,0,-3.9413,-3.9428,-3.9454,-3.9478,-3.9554,-3.9689,-3.9715,-3.9788,-3.9814,-3.9904,-3.9913,-4.0152,-4.0155,-4.0184,-4.0205,-4.0269,0,0,0,-3.938,-3.9483,-3.9454,-3.9576,-3.9552,-3.9709,-3.9714,-3.9833,-3.9914,-3.9909,-4.0153,-4.0156,-4.0183,-4.0202,-4.0266,-4.0319,-4.034,0,0,-3.95,-3.9497,-3.957,-3.9549,-3.9706,-3.9684,-3.9847,-3.994,-3.9966,-4.0092,-4.0098,-4.0189,-4.0205,-4.0269,-4.0466,-4.0482,0,0,0,-3.9602,-3.9654,-3.97,-3.9776,-3.9849,-3.9914,-3.9983,-4.0018,-4.0125,-4.0027,-4.0231,-4.0241,-4.0279,-4.0305,-4.0319,-4.0353,-4.0167,-4.0167,-4.0167,-3.9743,-3.977,-3.9893,-3.9942,-4.0017,-4.0088,-4.015,-4.0209,-4.0216,-4.0264,-4.03,-4.0417,-4.0447,-4.0457,-4.0492,-4.0333,-4.0333,-4.0333,-4.0333,-3.9919,-3.9996,-4.0003,-4.0124,-4.0153,-4.0256,-4.0329,-4.033,-4.043,-4.0391,-4.0427,-4.038,-4.0474,-4.0506,-4.0336,-4.0335,-4.0335,-4.0335,-4.0335,-4.0013,-4.0054,-4.0095,-4.0208,-4.0293,-4.034,-4.0435,-4.0459,-4.0482,-4.0517,-4.0558,-4.0557,-4.0558,-4.0535,-4.0536,-4.0536,-4.0536,-4.0537,-4.0537,-4.0093,-4.0138,-4.0214,-4.0301,-4.0353,-4.0425,-4.0498,-4.0551,-4.0615,-4.0624,-4.0625,-4.0626,-4.0479,-4.044,-4.0543,-4.0542,-4.0541,-4.0541,-4.054,-4.0258,-4.0224,-4.0343,-4.0395,-4.0499,-4.0581,-4.0611,-4.0715,-4.0762,-4.0808,-4.0803,-4.0691,-4.069,-4.0679,-4.0647,-4.0798,-4.0798,-4.0798,-4.0798,-4.0335,-4.0338,-4.0464,-4.0545,-4.0629,-4.0668,-4.0801,-4.086,-4.0915,-4.0946,-4.0928,-4.0889,-4.0877,-4.0883,-4.0867,-4.0838,-4.1033,-4.1034,-4.1034,-4.0437,-4.0449,-4.0557,-4.061,-4.0693,-4.0764,-4.089,-4.0984,-4.1041,-4.1044,-4.097,-4.096,-4.0897,-4.0875,-4.0873,-4.0849,-4.0795,0,0]},{"header":{"parameterUnit":"m.s-1","parameterCategory":1,"la1":30.2992,"la2":30.254,"lo1":-89.0895,"lo2":-89.0443,"dy":0.0025,"dx":0.0025,"nx":19,"ny":19,"refTime":"2026-04-01T21:00:00:Z","depth":0,"parameterNumber":3,"parameterNumberName":"V-component_of_WINDS"},"data":[0,0,0,3.1786,3.1788,3.1902,3.1902,3.2044,3.2045,0,0,0,0,0,0,0,0,0,0,0,3.1751,3.1752,3.1785,3.1788,3.1902,3.1902,3.2043,3.2045,0,0,0,0,0,0,0,0,0,0,0,3.1751,3.1752,3.1753,3.1789,3.1902,3.1902,3.2043,3.1958,0,0,0,0,0,0,0,0,0,0,3.1848,3.1816,3.1752,3.1753,3.1789,3.1901,3.1902,3.1954,3.1964,3.1991,0,3.2017,0,3.2033,3.2054,3.2055,0,0,0,3.1788,3.1809,3.184,3.1753,3.179,3.1901,3.185,3.1959,3.197,3.2003,3.2019,3.2024,3.2035,3.2055,3.2056,3.2219,3.222,0,0,3.1782,3.1771,3.1833,3.1847,3.1831,3.1847,3.1854,3.1966,3.1981,3.2019,3.2027,3.2038,3.2056,3.2057,3.2218,3.2219,0,0,0,3.1764,3.1766,3.1795,3.1841,3.1862,3.185,3.1858,3.1976,3.1987,3.2029,3.2039,3.2057,3.2058,3.2217,3.2219,3.2247,0,0,0,3.176,3.1756,3.1792,3.1787,3.186,3.1921,3.1866,3.1979,3.1992,3.2039,3.2057,3.206,3.2217,3.2218,3.2244,3.2261,0,0,0,3.1744,3.1754,3.177,3.1786,3.1834,3.1919,3.1936,3.1982,3.1998,3.2055,3.206,3.2216,3.2218,3.2242,3.2258,3.2302,0,0,0,3.1723,3.1792,3.1771,3.1852,3.1833,3.1936,3.1936,3.2012,3.2064,3.2058,3.2217,3.2218,3.2241,3.2256,3.23,3.2338,3.2353,0,0,3.1803,3.1801,3.185,3.1834,3.1938,3.192,3.2028,3.2084,3.2099,3.2178,3.2182,3.2245,3.2258,3.2302,3.2439,3.2451,0,0,0,3.1871,3.1906,3.1936,3.1987,3.2033,3.2074,3.2116,3.2138,3.2206,3.2138,3.2273,3.2281,3.2307,3.2326,3.2336,3.236,3.2227,3.2226,3.2226,3.1968,3.1986,3.2068,3.2099,3.2147,3.2191,3.2232,3.2268,3.2269,3.2301,3.2324,3.2406,3.2427,3.2435,3.246,3.2345,3.2345,3.2345,3.2346,3.2089,3.2141,3.2144,3.2225,3.2242,3.2309,3.2354,3.2353,3.2418,3.2389,3.2413,3.238,3.2447,3.247,3.2348,3.2347,3.2347,3.2347,3.2347,3.2155,3.2183,3.2209,3.2285,3.2341,3.2369,3.2432,3.2445,3.2457,3.2481,3.2508,3.2507,3.2509,3.2493,3.2493,3.2493,3.2494,3.2494,3.2494,3.2213,3.2242,3.2294,3.2351,3.2386,3.2433,3.2479,3.2513,3.2554,3.2558,3.2558,3.2557,3.2451,3.2425,3.2499,3.2498,3.2497,3.2497,3.2496,3.2329,3.2306,3.2387,3.2422,3.249,3.2546,3.2562,3.263,3.266,3.2691,3.2685,3.2604,3.2602,3.2594,3.2572,3.268,3.268,3.268,3.268,3.2386,3.2386,3.2473,3.2529,3.2584,3.2608,3.2698,3.2735,3.2768,3.2788,3.2774,3.2746,3.2737,3.274,3.2729,3.2709,3.2849,3.285,3.285,3.2459,3.2466,3.2541,3.2576,3.2631,3.2677,3.2763,3.2826,3.2858,3.2857,3.2803,3.2796,3.2751,3.2736,3.2733,3.2715,3.2679,0,0]}]]